Location: Bay Harbour
(38.2612°N, 75.2555°W)
Time: 02:19:24
(UTC+00:00)

Cosmos 1939 Rocket - Pass Details

Date: 29 October 2020
Orbit: 532 x 584 km, 97.4° (Epoch: 02 December)

Event Time Altitude Azimuth Distance (km) Brightness Sun altitude
Rises 23:15:28 0° 169° (SSE) 2,732 6.3 -14.5°
Reaches altitude 10° 23:17:36 10° 170° (S) 1,833 5.4 -14.9°
Maximum altitude 23:21:34 83° 257° (WSW) 559 2.8 -15.7°
Drops below altitude 10° 23:25:31 10° 347° (NNW) 1,817 5.6 -16.5°
Sets 23:27:37 0° 348° (NNW) 2,707 6.5 -16.9°
